Home > Weather > Andorra La Vella > Past weeks

Flag for Andorra Past Weather in Andorra La Vella, Andorra — Yesterday and Last 2 Weeks

Now
73 °F

Partly cloudy.


Feels Like: 75 °F
Forecast: 51 / 76 °F
Wind: 6 mph from West

Location: Carcassonne Airport

Current Time: Jul 31, 2016 at 5:38:15 AM

Latest Report: Jul 31, 2016 at 5:00 AM


Visibility: N/A

Pressure: 29.95 "Hg (26.59 "Hg at 1031m altitude)

Humidity: 74%

Dew Point: 64 °F

Location of Andorra La VellaLocation

Past Weather in Andorra La Vella — Graph

°F

Andorra La Vella Temperature Yesterday

Maximum temperature yesterday: 90 °F (at 3:30 PM)
Minimum temperature yesterday: 68 °F (at 5:00 AM)
Average temperature yesterday: 79 °F

High & Low Weather Summary for the Past Weeks

 TemperatureHumidityPressure
High93 °F (Jul 29, 5:00 PM)94% (Jul 18, 5:00 AM)30.21 "Hg (Jul 18, 5:00 AM)
Low52 °F (Jul 17, 6:30 AM)12% (Jul 17, 5:00 PM)29.86 "Hg (Jul 30, 6:00 PM)
Average75 °F61%30.08 "Hg
* Reported Jul 16 4:00 AM — Jul 31 4:30 AM, Andorra La Vella, Weather by CustomWeather, © 2016

Note: Actual official high and low records may vary slightly from our data, if they occured in-between our weather recording intervals... More about our weather records

Advertising

Andorra La Vella Weather History for the Previous 24 Hours

Scroll right to see more
 ConditionsComfort  
Time TempWeatherWind HumidityBarometerVisibility
4:30 AM
Sun, Jul 31
73 °FMostly cloudy.6 mph74%29.95 "HgN/A
4:00 AM75 °FOvercast.6 mph74%29.95 "HgN/A
3:30 AM75 °FPartly cloudy.8 mph74%29.98 "HgN/A
3:00 AM75 °FPartly cloudy.5 mph83%29.98 "HgN/A
2:30 AM75 °FMostly cloudy.3 mph83%29.98 "HgN/A
2:00 AM75 °FPartly cloudy.2 mph78%29.98 "HgN/A
1:30 AM75 °FOvercast.2 mph78%29.98 "HgN/A
1:00 AM75 °FOvercast.No wind78%29.98 "HgN/A
12:30 AM75 °FMostly cloudy.No wind78%29.98 "HgN/A
12:00 AM77 °FPassing clouds.No wind79%29.98 "HgN/A
11:30 PM
Sat, Jul 30
77 °FMostly cloudy.2 mph74%29.98 "HgN/A
11:00 PM77 °FPassing clouds.2 mph79%29.98 "HgN/A
10:30 PM77 °FOvercast.6 mph79%29.95 "HgN/A
10:00 PM77 °FBroken clouds.9 mph79%29.95 "HgN/A
9:30 PM77 °FSunny.10 mph79%29.92 "Hg10 mi
9:00 PM79 °FSunny.10 mph70%29.92 "Hg10 mi
8:30 PM81 °FPassing clouds.10 mph66%29.89 "HgN/A
8:00 PM82 °FWarm.12 mph58%29.89 "HgN/A
7:30 PM84 °FWarm.13 mph55%29.89 "HgN/A
7:00 PM86 °FWarm.13 mph55%29.89 "HgN/A
6:30 PM88 °FPassing clouds.14 mph52%29.86 "HgN/A
6:00 PM90 °FPassing clouds.15 mph46%29.86 "HgN/A
5:30 PM90 °FPassing clouds.13 mph46%29.89 "HgN/A
5:00 PM90 °FHot.14 mph46%29.89 "HgN/A
4:30 PM90 °FSunny.15 mph43%29.89 "Hg10 mi
4:00 PM90 °FPassing clouds.16 mph43%29.89 "HgN/A
3:30 PM90 °FPassing clouds.14 mph43%29.89 "HgN/A
3:00 PM88 °FSunny.16 mph46%29.89 "Hg10 mi
2:30 PM88 °FSunny.17 mph49%29.92 "Hg10 mi
2:00 PM88 °FPassing clouds.15 mph52%29.92 "HgN/A
1:30 PM86 °FPassing clouds.16 mph52%29.92 "HgN/A
1:00 PM86 °FPassing clouds.15 mph52%29.95 "HgN/A
12:30 PM86 °FPassing clouds.17 mph55%29.95 "HgN/A
12:00 PM86 °FPassing clouds.13 mph59%29.95 "HgN/A
11:30 AM86 °FPassing clouds.13 mph52%29.95 "HgN/A
11:00 AM84 °FSunny.14 mph55%29.95 "Hg10 mi
10:30 AM82 °FPassing clouds.14 mph58%29.95 "HgN/A
10:00 AM81 °FSunny.15 mph62%29.95 "Hg10 mi
9:30 AM79 °FPassing clouds.10 mph65%29.95 "HgN/A
9:00 AM77 °FPassing clouds.6 mph61%29.95 "HgN/A
8:30 AM75 °FSunny.2 mph65%29.95 "Hg10 mi
8:00 AM72 °FSunny.2 mph73%29.95 "Hg10 mi
7:30 AM68 °FClear.1 mph78%29.95 "Hg10 mi
7:00 AM68 °FMild.2 mph78%29.95 "HgN/A
6:30 AM70 °FMild.3 mph78%29.95 "HgN/A
6:00 AM70 °FMild.3 mph78%29.95 "HgN/A
5:30 AM68 °FPassing clouds.3 mph83%29.95 "HgN/A
5:00 AM68 °FClear.3 mph83%29.95 "Hg10 mi
Weather by CustomWeather, © 2016

See weather overviewHow to use our weather pages